Location: Newark
(37.8333°N, 119.5000°W)
Time: 06:57:47
(UTC+00:00)

A-11 Canister half - Visible Passes

Search period start: 22 August 2019 00:00
Search period end: 01 September 2019 00:00
Orbit: 1514 x 1686 km, 47.2° (Epoch: 21 August)

Date Brightness Start Highest point End Pass type
(mag) Time Alt. Az. Time Alt. Az. Time Alt. Az.
22 Aug 9.8 04:22:31 10° W 04:31:44 50° N 04:41:20 10° ENE visible
22 Aug 9.4 06:28:36 10° WNW 06:38:15 60° NNE 06:41:08 46° ENE visible
22 Aug 9.8 08:33:46 10° WNW 08:39:16 38° WNW 08:39:16 38° WNW visible
23 Aug 9.8 03:59:30 10° W 04:08:43 50° N 04:18:16 10° ENE visible
23 Aug 9.4 06:05:39 10° WNW 06:15:15 59° NNE 06:18:41 42° ENE visible
23 Aug 9.7 08:10:50 10° WNW 08:16:48 42° WNW 08:16:48 42° WNW visible
24 Aug 9.8 03:36:31 10° W 03:45:42 51° N 03:55:15 10° ENE visible
24 Aug 9.4 05:42:41 10° WNW 05:52:14 57° NNE 05:56:19 37° ENE visible
24 Aug 9.6 07:47:53 10° WNW 07:54:27 48° WNW 07:54:27 48° WNW visible
25 Aug 9.8 03:13:31 10° W 03:22:41 51° N 03:32:13 10° ENE visible
25 Aug 9.5 05:19:44 10° WNW 05:29:13 56° NNE 05:34:02 32° ENE visible
25 Aug 9.4 07:24:56 10° WNW 07:32:10 55° WNW 07:32:10 55° WNW visible
26 Aug 9.8 02:50:31 10° W 02:59:40 52° NNW 03:09:12 10° ENE visible
26 Aug 9.5 04:56:47 10° WNW 05:06:12 54° NNE 05:11:48 27° ENE visible
26 Aug 9.2 07:02:00 10° WNW 07:09:57 63° WNW 07:09:57 63° WNW visible
27 Aug 9.5 04:33:49 10° WNW 04:43:11 53° NNE 04:49:38 23° E visible
27 Aug 9.0 06:39:05 10° WNW 06:47:47 74° WNW 06:47:47 74° WNW visible
27 Aug 10.9 08:45:06 10° WNW 08:45:56 12° WNW 08:45:56 12° WNW visible
28 Aug 9.6 04:10:52 10° WNW 04:20:11 52° NNE 04:27:30 19° E visible
28 Aug 8.9 06:16:10 10° WNW 06:25:40 85° W 06:25:40 85° W visible
28 Aug 10.8 08:22:02 10° WNW 08:23:50 16° W 08:23:50 16° W visible
29 Aug 9.6 03:47:54 10° WNW 03:57:09 51° N 04:05:26 15° E visible
29 Aug 8.9 05:53:14 10° WNW 06:03:00 89° NNE 06:03:36 82° ESE visible
29 Aug 10.6 07:58:57 10° WNW 08:01:45 19° W 08:01:45 19° W visible
30 Aug 9.6 03:24:56 10° WNW 03:34:08 50° N 03:43:24 11° E visible
30 Aug 8.9 05:30:18 10° WNW 05:40:02 86° NNE 05:41:34 69° ESE visible
30 Aug 10.4 07:35:54 10° WNW 07:39:44 23° W 07:39:44 23° W visible
31 Aug 9.7 03:01:58 10° WNW 03:11:07 50° N 03:20:35 10° E visible
31 Aug 9.0 05:07:23 10° WNW 05:17:05 83° NNE 05:19:35 57° ESE visible
31 Aug 10.2 07:12:52 10° WNW 07:17:45 28° W 07:17:45 28° W visible
